This demonstration page uses our WeatherBlox Daily Observations layout. Learn more.

Left ArrowRight Arrow

39.01783, -85.05884

Hourly Observations for August 9, 2020

Temp ( °F °C ) Dew Point ( °F °C ) Humidity (%) Winds ( mph kmh ) Pressure ( in mb ) Visibility ( mi km ) Precip ( " mm )
12:52 am 00:52 Clear 72 22.2 61 16.1 68 68 Calm 30.13 1020 10 16.0934 0 0
1:52 am 01:52 Clear 67 19.4 61 16.1 81 81 S 6 9 30.12 1020 10 16.0934 0 0
2:52 am 02:52 Clear 67 19.4 60 15.6 79 79 Calm 30.13 1020 10 16.0934 0 0
3:52 am 03:52 Clear 65 18.3 60 15.6 84 84 W 3 6 30.13 1020 10 16.0934 0 0
4:52 am 04:52 Clear 66 18.9 61 16.1 84 84 Calm 30.13 1020 10 16.0934 0 0
5:52 am 05:52 Clear 65 18.3 62 16.7 90 90 Calm 30.13 1020 10 16.0934 0 0
6:52 am 06:52 Mostly Sunny 65 18.3 61 16.1 87 87 S 3 6 30.13 1020 7 11.26538 0 0
7:52 am 07:52 Partly Cloudy 68 20 62 16.7 81 81 Calm 30.14 1021 7 11.26538 0 0
8:52 am 08:52 Mostly Sunny 74 23.3 64 17.8 71 71 SSE 5 7 30.14 1021 10 16.0934 0 0
9:52 am 09:52 Mostly Sunny 78 25.6 64 17.8 62 62 SE 6 9 30.14 1021 10 16.0934 0 0
10:52 am 10:52 Mostly Sunny 81 27.2 64 17.8 57 57 SSW 6 9 30.14 1021 10 16.0934 0 0
11:52 am 11:52 Partly Cloudy 83 28.3 64 17.8 53 53 S 7 11 30.13 1020 10 16.0934 0 0
12:52 pm 12:52 Mostly Cloudy 85 29.4 65 18.3 51 51 SW 10 17 30.12 1020 10 16.0934 0 0
1:52 pm 13:52 Mostly Cloudy 86 30 66 18.9 51 51 W 6 9 30.11 1020 10 16.0934 0 0
2:52 pm 14:52 Mostly Cloudy 86 30 64 17.8 48 48 VRB 5 7 30.1 1019 10 16.0934 0 0
3:52 pm 15:52 Partly Cloudy 88 31.1 66 18.9 48 48 Calm 30.09 1019 10 16.0934 0 0
4:52 pm 16:52 Partly Cloudy 88 31.1 67 19.4 50 50 NW 5 7 30.07 1018 10 16.0934 0 0
5:52 pm 17:52 Partly Cloudy 89 31.7 64 17.8 43 43 Calm 30.06 1018 10 16.0934 0 0
6:52 pm 18:52 Partly Cloudy 87 30.6 66 18.9 50 50 WNW 6 9 30.03 1017 10 16.0934 0 0
7:52 pm 19:52 Partly Cloudy 82 27.8 66 18.9 58 58 SW 7 11 30.04 1017 10 16.0934 0 0
8:52 pm 20:52 Partly Cloudy 79 26.1 66 18.9 65 65 SSW 3 6 30.04 1017 10 16.0934 0 0
9:52 pm 21:52 Mostly Cloudy 79 26.1 66 18.9 65 65 SW 3 6 30.05 1018 10 16.0934 0 0
10:52 pm 22:52 Mostly Clear 75 23.9 67 19.4 76 76 S 3 6 30.06 1018 10 16.0934 0 0
11:52 pm 23:52 Mostly Clear 77 25 67 19.4 71 71 Calm 30.05 1018 10 16.0934 0 0

Powered by AerisWeather